EW2077 Weather Reports


Display with metric or nautical units.
time (UTC)temp
F
wind
direction
speed
MPH
gust
MPH
rain 1hr
in
rain 24hr
in
rain mn
in
humidity
%
barometer
mb
20260506154502 25 197 0.0 0.0 0.00 0.00 0.00 92 1047.1
20260506153104 25 197 0.0 0.0 0.00 0.00 0.00 92 1047.1
20260506151602 26 197 0.0 0.0 0.00 0.00 0.00 92 1047.1
20260506150100 26 197 0.0 0.0 0.00 0.00 0.00 92 1046.9
20260506144606 25 197 0.0 0.0 0.00 0.00 0.00 92 1046.9
20260506143102 25 197 0.0 0.0 0.00 0.00 0.00 92 1046.8
20260506141554 25 197 0.0 0.0 0.00 0.00 0.00 92 1046.5
20260506140054 25 197 0.0 0.0 0.00 0.00 0.00 92 1046.6
20260506134553 25 197 0.0 0.0 0.00 0.00 0.00 92 1046.3
20260506133052 25 197 0.0 0.0 0.00 0.00 0.00 92 1046.3
20260506131549 25 197 0.0 0.0 0.00 0.00 0.00 92 1046.0
20260506130057 25 197 0.0 0.0 0.00 0.00 0.00 92 1045.8
20260506124548 25 197 0.0 0.0 0.00 0.00 0.00 92 1045.3
20260506123042 25 197 0.0 0.0 0.00 0.00 0.00 92 1045.0
20260506121539 25 197 0.0 0.0 0.00 0.00 0.00 92 1044.8
20260506120043 25 197 0.0 0.0 0.00 0.00 0.00 92 1044.5
20260506114535 25 197 0.0 0.0 0.00 0.00 0.00 92 1044.5
20260506113033 25 197 0.0 0.0 0.00 0.00 0.00 92 1044.3
20260506111530 25 197 0.0 0.0 0.00 0.00 0.00 92 1044.2
20260506110031 25 197 0.0 0.0 0.00 0.00 0.00 92 1043.6
20260506104526 25 197 0.0 0.0 0.00 0.00 0.00 92 1043.9
20260506103025 25 197 0.0 0.0 0.00 0.00 0.00 92 1043.9
20260506101524 25 197 0.0 0.0 0.00 0.00 0.00 92 1043.7
20260506100023 25 197 0.0 0.0 0.00 0.00 0.00 92 1043.6
20260506094521 25 197 0.0 0.0 0.00 0.00 0.00 92 1043.4
20260506093019 26 197 0.0 0.0 0.00 0.00 0.00 92 1043.1
20260506091518 26 197 0.0 0.0 0.00 0.00 0.00 92 1043.1
20260506090019 26 197 0.0 0.0 0.00 0.00 0.00 92 1042.7
20260506084513 26 197 0.0 0.0 0.00 0.00 0.00 93 1042.4
20260506083013 26 197 0.0 0.0 0.00 0.00 0.00 93 1042.5
20260506081509 26 197 0.0 0.0 0.00 0.00 0.00 93 1042.2
20260506073015 26 197 0.0 0.0 0.00 0.00 0.00 92 1042.8
20260506071514 26 197 0.0 0.0 0.00 0.00 0.00 92 1042.9
20260506061506 27 197 0.0 0.0 0.00 0.00 0.00 92 1042.1
20260506050111 27 197 0.0 0.0 0.00 0.00 0.00 92 1041.5
20260506044557 27 197 0.0 0.0 0.00 0.00 0.00 92 1041.4
20260506043104 27 197 0.0 0.0 0.00 0.00 0.00 92 1041.2
20260506041554 27 197 0.0 0.0 0.00 0.00 0.00 92 1041.2
20260506034551 27 197 0.0 0.0 0.00 0.00 0.00 92 1040.7
20260506033050 27 197 0.0 0.0 0.00 0.00 0.00 92 1040.6
20260506031551 27 197 0.0 0.0 0.00 0.00 0.00 92 1040.2
20260506030050 27 197 0.0 0.0 0.00 0.00 0.00 92 1039.6
20260506024553 27 197 0.0 0.0 0.00 0.00 0.00 92 1039.4
20260506023041 27 197 0.0 0.0 0.00 0.00 0.00 92 1039.1
20260506021556 27 197 0.0 0.0 0.00 0.00 0.00 92 1039.0
20260506020036 27 197 0.0 0.0 0.00 0.00 0.00 92 1038.5
20260506014536 27 197 0.0 0.0 0.00 0.00 0.00 92 1038.2
20260506013033 27 197 0.0 0.0 0.00 0.00 0.00 92 1037.9
20260506011536 27 197 0.0 0.0 0.00 0.00 0.00 92 1037.9
20260506010030 28 197 0.0 0.0 0.00 0.00 0.00 92 1037.8
20260506004527 28 197 0.0 0.0 0.00 0.00 0.00 92 1037.4
20260506003025 28 197 0.0 0.0 0.00 0.00 0.00 92 1037.2
20260506001522 28 197 0.0 0.0 0.00 0.00 0.00 92 1036.9
20260506000020 29 197 0.0 0.0 0.00 0.00 0.00 92 1036.5
20260505234520 29 197 0.0 0.0 0.00 0.00 0.00 92 1036.2
20260505233015 30 197 0.0 1.0 0.00 0.00 0.00 92 1036.0
20260505231514 30 197 0.0 1.0 0.00 0.00 0.00 92 1035.9
20260505230011 30 196 0.0 3.0 0.00 0.00 0.00 92 1035.1
20260505224507 31 201 0.0 3.0 0.00 0.00 0.00 92 1034.7
20260505223007 32 200 0.0 1.0 0.00 0.00 0.00 92 1035.2
20260505221504 32 200 0.0 2.0 0.00 0.00 0.00 92 1034.3
20260505220003 32 200 0.0 2.0 0.00 0.00 0.00 92 1034.1
20260505214502 33 200 0.0 3.0 0.00 0.00 0.00 91 1034.1
20260505213002 33 200 0.0 3.0 0.00 0.00 0.00 91 1034.1
20260505211502 34 200 0.0 0.0 0.00 0.00 0.00 91 1033.9
20260505210000 33 200 0.0 3.0 0.00 0.00 0.00 91 1034.2
20260505204600 33 201 0.0 2.0 0.00 0.00 0.00 91 1034.2
20260505203059 33 200 2.0 6.0 0.00 0.00 0.00 91 1034.4
20260505201558 34 188 0.0 5.0 0.00 0.00 0.00 91 1034.5
20260505200105 35 202 0.0 3.0 0.00 0.00 0.00 91 1034.1
20260505194556 34 201 0.0 3.0 0.00 0.00 0.00 92 1034.1
20260505193053 34 201 0.0 0.0 0.00 0.00 0.00 92 1034.0
20260505191554 34 202 0.0 3.0 0.00 0.00 0.00 92 1033.8
20260505190055 33 202 0.0 3.0 0.00 0.00 0.00 92 1034.0
20260505184552 33 199 1.0 4.0 0.00 0.00 0.00 93 1034.1
20260505183103 32 198 0.0 3.0 0.00 0.00 0.00 92 1034.2
20260505181553 33 198 0.0 2.0 0.00 0.00 0.00 93 1034.2
20260505180052 32 198 0.0 4.0 0.00 0.00 0.00 92 1034.1
20260505174558 32 198 0.0 2.0 0.00 0.00 0.00 92 1034.1
20260505173048 32 198 0.0 3.0 0.00 0.00 0.00 92 1034.2
20260505171550 33 200 0.0 1.0 0.00 0.00 0.00 93 1034.1
20260505170047 33 200 0.0 1.0 0.00 0.00 0.00 93 1034.0
20260505164546 32 200 0.0 0.0 0.00 0.00 0.00 93 1034.1
20260505163045 32 200 0.0 1.0 0.00 0.00 0.00 93 1034.2
20260505161545 31 200 0.0 2.0 0.00 0.00 0.00 93 1034.1